DELTA 1 DEB

Satellite information

Favourite Embed

Satellite Type and Status

DEBRISIN ORBIT

Key statistics

Satellite DELTA 1 DEB at a glance.

Uptime

17232

Days in orbit

Revolutions

≈ 14.4

Per day

Orbit

SSO

Sun Synchronous Orbit

Inclination

99.1

Latest

Satellite identification and parameters

Extended collection of information and parameters for DELTA 1 DEB.

Object identification

Identified? True

Debris? True

Object name: DELTA 1 DEB

International designator: 1978-026ET

Object number (NORAD): 12427

Object ID (CCSDS): 12427

Country: UNITED STATES OF AMERICA (US)

Current information (Y/N): Y

RCS size: SMALL

Orbital parameters

Period: 99.917 minutes

Inclination: 99.1325 deg

SMA: 7132.687 km

Apoapsis: 829.282 km

Periapsis: 679.822 km

RAAN: 280.4006 deg

Eccentricy: 0.0104771

Argument of periapsis: 66.645 deg

Mean anomaly: 60.5798 deg

Mean motion: 14.41195901 rev/day

Mean motion (dot): 0.0000432 rev/day2

B* drag term: 0.0012684 1/REarth

Two-line elements (TLE)

Creation date: May 9, 2025, 2:46 a.m.

Reference frame: TEME

Reference center: EARTH

Epoch: May 8, 2025, 4:16 p.m. UTC

TLE line 0: 0 DELTA 1 DEB

TLE line 1: 1 12427U 78026ET 25128.67819620 .00004320 00000-0 12684-2 0 9998

TLE line 2: 2 12427 99.1325 280.4006 0104771 66.6450 60.5798 14.41195901313573

Live tracking on map

Real-time ground track for satellite DELTA 1 DEB.

In-orbit conjunctions

A list of the most updated potential collisions computed for object DELTA 1 DEB.

Target Orbit TCA Probability of collision Miss distance Type
CZ-6A DEB LEO 2025-02-16 07:53:16 0.0001323566 90.0 (m) DEBRIS
CZ-6A DEB LEO 2024-12-21 17:10:52 0.0002008059 401.0 (m) DEBRIS

Associated space launch

Earth observation satellite

DELTA 1 DEB was lifted into orbit during the mission ‘Delta 2910 | Landsat 3’, on board a Delta 2910 space rocket.

The launch took place on March 5, 1978, 5:54 p.m. from Space Launch Complex 2W.

For more information about the launch, click the button.

Launch to space Delta 2910 | Landsat 3
Delta 2910 | Landsat 3

Agency: N/A

Status: Launch Successful

Launch date: March 5, 1978, 5:54 p.m. UTC

Rocket: Delta 2910

Launch pad: Space Launch Complex 2W

Location: Vandenberg SFB, CA, USA

...

Latest news about this satellite

There are no fresh news available about this satellite. Check back as we update our databases every day.


Newsletter sign-up

Weekly statistics, charts and insights to help you stay on top of the space industry.